Wind_Speed
25 25 25 25 25 26 27 28 29 29 29 29 29 29 29 30 31 31 32 32 32 32 33 33 34 35 36 37 38 39 42 43 44 45 44 45 46 46 48 47 46 45 44 43
25 25 25 26 26 27 28 29 29 28 28 29 29 28 28 29 30 31 31 31 31 32 32 32 33 34 36 37 38 38 40 42 44 44 44 44 45 45 47 47 46 45 44 43
26 25 25 26 27 28 28 29 29 29 28 29 29 28 27 27 28 30 31 30 31 32 33 33 34 34 35 37 38 39 40 40 42 44 44 45 45 46 46 46 46 45 45 44
26 26 27 27 28 28 29 29 30 29 29 29 28 28 25 26 27 29 30 31 31 31 32 32 33 34 34 35 37 39 40 40 41 43 44 45 44 45 45 45 46 46 45 45
27 26 27 28 28 29 29 30 30 29 29 30 28 29 25 26 27 28 30 31 30 30 29 29 31 32 34 34 35 37 39 40 41 42 43 44 43 44 45 45 46 46 46 45
28 27 28 29 29 29 30 30 31 30 30 30 29 28 26 26 26 28 30 30 29 29 28 28 29 30 32 33 34 36 37 39 40 42 43 44 44 44 44 45 45 46 46 46
28 28 29 29 30 30 30 30 31 31 30 30 30 29 28 26 27 28 29 29 28 28 28 28 29 30 31 32 33 34 36 38 40 41 42 43 43 44 44 45 45 45 46 47
30 30 30 30 30 31 30 30 30 31 31 31 29 28 27 27 26 27 28 27 27 28 28 28 29 29 29 30 31 33 35 37 38 40 41 43 43 44 45 45 45 45 45 46
31 31 31 31 31 31 31 30 30 30 31 32 30 28 27 26 26 27 27 27 26 27 28 28 29 29 29 30 31 32 34 37 38 40 40 42 43 43 45 46 46 46 46 46
32 32 31 31 31 31 31 30 29 29 30 31 31 29 28 27 26 26 27 27 27 27 28 28 28 28 28 29 31 32 33 36 37 38 40 42 43 43 44 46 47 47 48 48
33 33 32 31 30 30 29 29 28 29 30 31 31 30 29 28 29 28 27 27 27 28 28 28 27 27 27 28 29 31 32 34 36 37 38 41 43 44 45 46 46 47 48 48
34 34 33 32 30 30 29 29 29 29 30 30 30 30 29 29 30 30 29 28 28 28 27 28 27 27 27 28 28 29 30 31 34 36 38 40 42 44 45 46 46 46 47 48
34 34 34 33 31 30 29 29 30 30 31 30 30 30 30 31 32 31 30 29 27 27 26 27 28 28 28 28 27 28 29 31 32 34 35 38 41 42 44 45 45 46 46 47
33 33 32 32 32 31 30 30 30 30 31 31 30 30 30 31 31 31 31 29 28 27 26 27 28 27 27 27 27 27 29 31 32 33 34 37 39 40 41 43 44 45 46 47
33 33 32 32 32 32 31 31 30 31 31 32 31 31 31 31 31 31 30 29 28 27 27 26 27 28 28 27 27 27 29 31 32 33 34 36 38 40 40 41 42 43 45 47
33 33 32 32 32 32 32 30 31 31 30 31 30 30 31 31 31 30 29 28 28 28 27 26 26 27 27 28 28 28 29 31 33 34 34 35 36 39 39 40 40 41 43 45
34 34 33 33 32 31 30 30 30 30 30 30 31 31 31 31 31 30 28 27 27 28 28 28 27 27 28 28 29 30 31 31 32 34 35 35 36 37 38 39 39 39 41 42
33 33 33 33 32 31 30 30 30 31 31 32 32 31 30 31 30 30 29 28 27 27 27 27 28 28 28 28 29 30 31 32 32 33 34 34 35 36 37 38 39 39 39 40
32 32 31 31 31 32 30 31 31 31 31 31 31 31 30 30 30 29 29 28 27 27 27 28 28 28 29 29 29 30 30 31 31 33 34 34 35 37 37 38 39 39 39 40
31 31 31 31 32 32 31 31 31 31 31 30 30 30 29 29 29 28 28 28 27 26 27 27 27 28 28 28 28 29 29 30 31 32 33 34 34 36 37 38 39 39 40 40
31 31 31 31 32 32 32 31 31 31 31 30 30 30 29 29 28 28 27 27 26 26 26 26 27 28 28 29 29 30 30 30 31 30 31 32 33 34 36 37 37 39 40 40
32 32 31 32 32 32 31 31 31 31 31 31 30 29 29 28 27 27 27 26 26 26 26 26 26 27 28 29 30 30 30 30 31 31 31 32 33 34 35 36 37 37 38 39
32 32 31 31 31 30 30 31 31 30 30 30 29 28 28 27 27 26 26 26 25 25 26 26 26 26 27 28 29 29 30 30 30 30 31 32 32 33 34 35 36 36 38 39
32 30 30 30 29 29 29 30 30 30 30 29 29 28 28 27 27 26 26 26 26 25 26 26 27 26 27 27 28 28 28 29 29 30 31 31 32 32 34 35 36 37 37 39
31 30 30 31 30 29 29 30 30 29 29 29 29 28 28 27 26 26 26 26 26 25 26 26 26 26 26 27 27 28 28 29 30 30 31 31 32 32 33 34 35 36 37 38
30 31 31 31 30 31 29 29 30 29 29 29 29 28 28 27 26 26 26 26 26 26 26 26 26 26 26 27 27 27 28 29 29 30 31 32 33 33 33 34 34 36 36 37
Wind_Direction
303 301 299 297 297 297 297 296 296 293 288 285 286 285 285 282 280 278 278 278 277 276 274 270 265 262 258 256 254 253 250 247 244 242 242 241 239 239 239 240 242 242 241 240
303 302 302 301 299 298 297 298 298 294 291 289 289 288 286 283 281 279 279 279 278 276 274 270 267 264 260 256 254 253 250 246 242 242 242 242 241 239 239 239 240 240 240 240
303 303 303 302 301 299 299 300 300 296 293 291 292 290 288 284 281 280 279 279 278 277 275 271 267 265 262 257 254 252 250 245 244 242 241 241 241 239 238 237 238 238 239 241
303 303 303 302 301 300 301 301 301 297 295 293 294 294 291 286 282 281 280 280 281 280 277 274 269 265 262 258 255 252 249 247 244 242 240 241 241 238 237 236 236 237 239 241
303 303 303 302 302 302 303 303 301 298 296 294 294 295 295 291 285 284 282 283 283 281 278 276 271 267 263 259 257 253 249 248 244 241 241 241 240 238 236 236 237 237 239 240
302 302 304 304 304 304 305 304 302 299 298 296 295 295 295 292 290 288 286 285 284 281 279 277 275 271 266 262 260 256 249 246 244 243 242 240 239 237 237 236 237 237 238 240
301 300 301 304 304 304 305 306 304 303 300 298 297 296 296 295 294 291 289 287 286 283 281 279 277 274 269 264 261 257 251 247 245 244 242 240 240 238 237 237 238 238 239 240
301 301 301 303 304 304 304 305 303 301 300 298 298 299 298 296 294 291 290 289 286 283 282 280 277 277 271 265 262 258 252 248 245 245 244 242 241 239 239 239 240 239 239 240
300 301 301 302 304 304 303 302 301 299 298 297 296 297 295 296 295 294 291 288 285 283 283 282 280 277 271 268 264 260 254 250 248 247 245 243 241 242 241 240 241 241 241 241
298 300 300 302 303 303 302 302 301 300 300 300 297 297 297 298 300 297 291 287 285 284 284 283 280 277 273 268 265 262 257 253 251 248 245 243 242 243 243 242 242 243 242 242
298 299 299 300 302 303 302 302 300 299 298 297 298 297 297 299 300 298 294 289 285 285 284 282 281 279 276 270 266 263 259 255 252 250 248 247 245 244 243 243 242 242 243 245
299 299 298 299 301 301 299 300 299 298 297 295 295 297 297 297 298 297 294 291 287 285 283 280 278 279 277 273 269 265 260 257 253 251 251 249 248 246 245 244 243 244 244 244
300 300 300 299 300 300 298 298 297 296 295 294 294 297 297 297 297 295 293 291 289 287 285 282 279 278 277 275 271 267 262 259 257 255 254 252 250 248 247 246 246 245 244 244
299 298 298 298 298 299 297 296 296 295 294 293 292 294 296 296 296 295 292 291 289 288 287 284 281 280 277 275 273 269 264 261 259 257 256 254 250 248 247 247 247 245 244 244
299 298 297 296 295 295 294 295 294 292 292 291 292 291 294 295 297 295 293 290 286 285 284 282 281 279 277 274 272 272 269 264 261 259 258 257 252 249 249 248 247 245 243 243
298 297 296 294 294 294 293 295 294 294 292 291 291 290 292 293 295 295 292 289 286 283 281 281 280 279 277 275 272 273 272 268 264 261 259 257 253 249 249 249 248 246 244 244
299 297 295 294 294 294 294 295 295 295 293 293 293 292 292 292 293 293 291 288 284 283 280 280 280 280 279 277 275 274 273 270 267 262 260 258 254 251 251 249 248 247 247 246
299 297 296 295 294 293 295 296 296 296 295 294 294 293 292 292 292 291 290 290 285 282 279 278 279 278 278 277 276 275 274 271 269 265 261 259 257 254 253 251 250 249 250 249
299 297 296 296 295 294 295 297 297 297 297 297 295 294 293 292 291 290 288 288 286 283 280 278 278 278 277 277 276 276 276 273 270 267 263 261 259 256 255 253 251 251 251 250
299 297 295 294 294 296 298 297 297 296 297 298 297 296 295 294 292 291 289 287 285 284 283 280 278 277 277 277 277 277 277 277 274 270 267 264 262 260 257 256 254 253 253 252
300 297 295 294 294 295 297 297 296 296 297 296 296 297 296 295 294 294 292 289 287 285 284 282 280 279 278 278 278 277 278 277 276 274 272 268 266 263 260 258 257 256 255 255
300 298 297 296 295 295 295 295 294 295 294 294 295 296 296 295 294 294 293 290 288 286 285 284 283 281 279 279 278 278 277 277 276 275 274 271 267 264 262 261 260 259 258 258
297 297 298 298 297 297 295 293 293 294 294 293 293 294 295 294 293 295 294 291 290 288 286 285 285 282 280 279 279 278 277 276 275 273 272 271 269 266 263 262 261 261 260 260
296 295 295 296 296 294 293 292 292 293 292 291 291 293 294 293 293 293 293 291 290 289 289 287 286 285 282 280 279 278 277 276 275 273 273 272 272 270 267 265 262 262 263 262
298 295 294 294 294 293 292 292 291 291 290 289 289 291 292 292 292 291 290 290 290 289 289 289 288 286 284 281 279 279 278 278 276 274 273 273 272 272 270 267 265 264 263 263
298 296 295 295 294 293 292 292 290 289 289 288 287 286 288 290 289 290 290 290 289 290 289 288 287 286 285 283 281 279 279 279 278 276 274 273 273 272 270 267 266 264 264 264
Height
5719 5717 5714 5711 5708 5705 5702 5699 5696 5693 5689 5688 5685 5682 5679 5676 5675 5673 5670 5668 5666 5664 5662 5660 5658 5657 5657 5658 5659 5659 5662 5664 5668 5673 5677 5682 5687 5690 5694 5699 5703 5708 5712 5716
5714 5711 5708 5705 5701 5698 5695 5692 5689 5685 5682 5680 5677 5674 5671 5668 5666 5663 5661 5659 5657 5655 5652 5650 5648 5647 5646 5646 5647 5648 5650 5653 5657 5662 5666 5671 5675 5679 5683 5688 5692 5697 5702 5706
5708 5705 5701 5698 5695 5692 5688 5685 5682 5678 5675 5672 5669 5667 5664 5660 5657 5655 5653 5650 5647 5645 5643 5641 5639 5637 5636 5636 5637 5639 5640 5643 5647 5650 5655 5659 5663 5667 5672 5677 5682 5687 5691 5695
5701 5698 5695 5692 5688 5685 5682 5678 5675 5671 5668 5664 5661 5658 5657 5652 5649 5646 5644 5641 5638 5636 5633 5631 5629 5628 5627 5627 5627 5628 5630 5633 5636 5640 5644 5648 5652 5657 5662 5667 5672 5676 5681 5685
5695 5692 5688 5685 5682 5678 5675 5671 5667 5664 5660 5657 5654 5650 5649 5645 5641 5638 5636 5633 5630 5627 5625 5622 5620 5618 5618 5618 5618 5619 5620 5623 5626 5629 5634 5638 5642 5647 5652 5656 5661 5666 5670 5674
5689 5685 5682 5678 5674 5671 5667 5664 5660 5657 5653 5650 5647 5643 5641 5637 5633 5630 5627 5625 5622 5619 5617 5615 5612 5610 5609 5609 5609 5610 5611 5614 5617 5620 5624 5628 5632 5637 5641 5645 5650 5655 5660 5664
5682 5678 5675 5671 5668 5664 5660 5657 5652 5648 5644 5642 5639 5636 5634 5630 5626 5622 5619 5617 5614 5612 5609 5607 5605 5603 5601 5601 5601 5601 5602 5605 5608 5611 5614 5618 5622 5626 5631 5635 5640 5644 5649 5653
5674 5671 5667 5663 5660 5656 5653 5649 5646 5641 5637 5635 5631 5628 5627 5623 5618 5615 5612 5610 5607 5604 5602 5600 5598 5596 5594 5594 5593 5593 5594 5597 5599 5602 5605 5608 5612 5616 5620 5625 5629 5633 5638 5642
5666 5663 5660 5656 5652 5649 5645 5641 5638 5634 5630 5626 5624 5622 5619 5615 5611 5608 5605 5603 5600 5597 5595 5593 5591 5589 5588 5587 5586 5586 5587 5589 5591 5593 5596 5598 5602 5606 5610 5614 5618 5622 5626 5631
5658 5655 5652 5648 5645 5641 5638 5634 5630 5626 5621 5618 5616 5614 5611 5608 5604 5601 5598 5595 5592 5590 5588 5586 5584 5582 5580 5579 5579 5578 5579 5581 5583 5585 5586 5589 5592 5596 5600 5603 5607 5611 5615 5619
5649 5647 5644 5640 5637 5633 5630 5627 5622 5619 5615 5611 5608 5609 5604 5600 5597 5593 5590 5587 5584 5583 5581 5579 5577 5575 5573 5571 5571 5570 5571 5572 5574 5575 5577 5580 5583 5586 5589 5592 5596 5599 5603 5607
5640 5638 5635 5632 5629 5625 5622 5619 5615 5612 5608 5604 5601 5603 5597 5593 5589 5585 5582 5579 5577 5575 5573 5571 5569 5567 5566 5565 5564 5563 5563 5563 5564 5566 5568 5570 5573 5575 5578 5581 5585 5588 5592 5595
5632 5629 5625 5623 5622 5618 5614 5611 5607 5604 5600 5597 5594 5595 5590 5585 5581 5578 5574 5572 5569 5567 5565 5563 5562 5560 5558 5557 5556 5555 5555 5555 5556 5557 5559 5561 5562 5565 5567 5570 5573 5576 5580 5583
5623 5620 5618 5615 5611 5608 5605 5603 5599 5595 5592 5589 5587 5585 5583 5577 5573 5570 5567 5564 5561 5559 5557 5555 5553 5552 5550 5549 5548 5548 5547 5547 5547 5548 5549 5551 5552 5554 5556 5559 5561 5564 5567 5571
5614 5612 5609 5606 5603 5599 5597 5594 5590 5586 5584 5580 5579 5576 5573 5568 5565 5562 5559 5556 5553 5551 5549 5548 5546 5544 5543 5542 5541 5540 5539 5538 5539 5539 5540 5541 5542 5543 5545 5547 5550 5552 5555 5558
5605 5602 5600 5598 5594 5590 5588 5586 5582 5578 5575 5572 5569 5567 5564 5560 5557 5553 5550 5548 5546 5543 5541 5540 5538 5536 5535 5534 5533 5532 5531 5530 5529 5530 5530 5530 5531 5533 5535 5536 5538 5541 5544 5547
5596 5593 5590 5587 5584 5581 5580 5578 5574 5570 5567 5564 5561 5559 5555 5552 5549 5545 5543 5540 5538 5535 5533 5532 5530 5529 5527 5526 5524 5523 5522 5521 5521 5521 5521 5521 5521 5523 5523 5525 5528 5530 5533 5535
5587 5583 5579 5577 5575 5572 5573 5568 5565 5561 5559 5555 5552 5549 5546 5543 5540 5537 5534 5532 5529 5527 5526 5524 5522 5521 5519 5517 5516 5515 5513 5512 5512 5511 5511 5511 5511 5513 5513 5515 5517 5520 5522 5524
5578 5574 5570 5567 5564 5562 5563 5559 5555 5552 5550 5546 5542 5540 5537 5534 5531 5529 5526 5523 5521 5519 5517 5516 5514 5512 5511 5509 5508 5506 5505 5504 5503 5502 5502 5501 5502 5503 5504 5505 5507 5509 5511 5513
5569 5565 5562 5558 5555 5553 5554 5550 5545 5543 5540 5537 5533 5531 5528 5525 5523 5522 5518 5515 5513 5511 5509 5507 5506 5504 5502 5501 5499 5498 5496 5495 5494 5493 5492 5492 5492 5493 5494 5495 5496 5498 5500 5502
5560 5556 5553 5550 5546 5544 5544 5540 5536 5535 5532 5528 5525 5522 5519 5517 5514 5512 5509 5507 5505 5503 5501 5499 5497 5496 5494 5492 5491 5489 5488 5486 5485 5484 5483 5483 5483 5483 5484 5484 5486 5487 5489 5491
5550 5547 5544 5540 5537 5538 5534 5530 5528 5525 5522 5518 5516 5513 5511 5508 5506 5503 5501 5498 5496 5494 5493 5491 5489 5487 5485 5484 5482 5480 5479 5478 5477 5476 5475 5474 5474 5474 5474 5474 5475 5476 5478 5479
5541 5539 5534 5532 5531 5527 5523 5520 5518 5515 5513 5510 5507 5505 5502 5500 5498 5496 5493 5491 5488 5486 5484 5482 5481 5479 5477 5475 5474 5472 5470 5469 5468 5467 5466 5465 5465 5464 5464 5465 5465 5466 5467 5468
5532 5528 5525 5522 5520 5517 5514 5511 5508 5506 5503 5501 5499 5496 5494 5492 5490 5488 5485 5483 5480 5478 5476 5474 5472 5470 5468 5467 5465 5464 5462 5461 5459 5458 5457 5456 5455 5455 5454 5455 5455 5455 5456 5457
5522 5518 5515 5512 5511 5508 5505 5502 5499 5496 5494 5492 5490 5487 5485 5483 5481 5479 5477 5475 5472 5470 5468 5466 5464 5462 5460 5458 5457 5455 5453 5452 5451 5450 5448 5447 5446 5445 5445 5445 5445 5445 5445 5445
5513 5509 5506 5503 5501 5498 5496 5492 5490 5487 5485 5483 5481 5479 5477 5475 5473 5471 5469 5466 5464 5462 5460 5458 5456 5453 5451 5450 5448 5446 5445 5443 5442 5440 5439 5438 5436 5436 5435 5435 5435 5434 5435 5435